Voltar ao catálogo

OPS 2644 DEB

AtivoPO
NORAD 3841·DEBRIS·🇺🇸 United States

Lançado Feb 5, 1969 de Vandenberg Space Force Base

Loading…

Próximas Passagens (próximas 24 horas)

TLE

AtualizadoSource: Space-Track

Época: Sep 14, 2026, 02:32 UTC

1 03841U 69010D   26257.10619655  .00000040  00000-0  18019-3 0  9993
2 03841  80.1777 310.3385 0031579 240.1611 145.8590 12.66877695661980

Acompanhe OPS 2644 DEB em tempo real com AllMySat

Download on the App Store